Home   Weather   Osorno   Past weeks

Flag for Chile Past Weather in Osorno, Chile — Yesterday and Last 2 Weeks

Now
41 °F

Passing clouds.


Feels Like: 41 °F
Forecast: 41 / 56 °F
Wind: 2 mph from North

Location: Puerto Montt Airport

Current Time: Apr 25, 2017 at 7:42:18 am

Latest Report: Apr 25, 2017 at 7:00 am


Visibility: N/A

Pressure: 30.07 "Hg

Humidity: 93%

Dew Point: 39 °F

Location of OsornoLocation

Past Weather in Osorno — Graph

°F

Osorno Temperature Yesterday

Maximum temperature yesterday: 57 °F (at 2:35 pm)
Minimum temperature yesterday: 48 °F (at 10:00 am)
Average temperature yesterday: 52 °F

High & Low Weather Summary for the Past Weeks

 TemperatureHumidityPressure
High75 °F (Apr 16, 5:00 pm)100% (Apr 10, 9:00 am)30.24 "Hg (Apr 10, 9:00 am)
Low36 °F (Apr 12, 5:00 am)34% (Apr 16, 5:00 pm)29.83 "Hg (Apr 16, 1:00 am)
Average53 °F86%30.03 "Hg
* Reported Apr 10 6:00 am — Apr 25 6:00 am, Osorno, Weather by CustomWeather, © 2017

Note: Actual official high and low records may vary slightly from our data, if they occured in-between our weather recording intervals... More about our weather records

Advertising

Osorno Weather History for the Previous 24 Hours

Scroll right to see more
 ConditionsComfort  
Time TempWeatherWind HumidityBarometerVisibility
6:00 am
Tue, Apr 25
41 °FPassing clouds.2 mph100%30.04 "HgN/A
5:00 am43 °FPassing clouds.2 mph100%30.04 "HgN/A
4:00 am45 °FPassing clouds.No wind93%30.01 "HgN/A
3:00 am45 °FPartly cloudy.No wind93%30.01 "HgN/A
2:00 am46 °FPartly cloudy.3 mph93%29.98 "HgN/A
1:00 am48 °FPassing clouds.3 mph94%29.98 "HgN/A
12:00 am48 °FPassing clouds.2 mph94%29.95 "HgN/A
11:00 pm
Mon, Apr 24
48 °FOvercast.No wind94%29.92 "HgN/A
10:00 pm48 °FPassing clouds.3 mph94%29.92 "HgN/A
9:00 pm50 °FPassing clouds.6 mph94%29.89 "HgN/A
8:00 pm50 °FPassing clouds.5 mph88%29.86 "HgN/A
6:00 pm55 °FPartly sunny.5 mph72%29.86 "HgN/A
5:00 pm55 °FPartly sunny.8 mph72%29.86 "HgN/A
4:00 pm55 °FPartly sunny.9 mph77%29.83 "HgN/A
3:00 pm55 °FScattered showers. Broken clouds.10 mph77%29.83 "HgN/A
2:35 pm57 °FScattered showers. Broken clouds.8 mph77%29.83 "HgN/A
2:00 pm54 °FBroken clouds.7 mph94%29.86 "HgN/A
1:00 pm52 °FLow clouds.10 mph94%29.86 "HgN/A
12:00 pm50 °FLow clouds.10 mph94%29.86 "HgN/A
11:00 am50 °FSprinkles. Low clouds.16 mph94%29.86 "Hg5 mi
10:13 am48 °FLight rain. Low clouds.12 mph100%29.86 "Hg4 mi
10:00 am48 °FRain. More clouds than sun.12 mph100%29.86 "Hg2 mi
9:00 am50 °FLight rain. Overcast.21 mph94%29.86 "Hg2 mi
8:00 am50 °FLight rain. Overcast.23 mph94%29.86 "Hg3 mi
7:00 am52 °FOvercast.22 mph88%29.86 "HgN/A
Weather by CustomWeather, © 2017

See weather overviewHow to use our weather pages